STARLINK-5688, 55479

Orbit data source: Space-Track

STARLINK-5688, 55479 is a payload satellite owned by SpaceX/Seattle (US) in LEO that was launched on Thu, 02 Feb 2023 UTC via an FALCON 9 launch vehicle from the Air Force Eastern Test Range (AFETR). Payload-class satellites include a variety of spacecraft equipped with specific instruments for various scientific and technological missions. These include communications satellites like Starlink; space stations such as the ISS; scientific satellites like the Hubble; Earth observation satellites from companies like Planet Labs, Umbra, and HawkEye 360; GPS; miniature CubeSats for education and research; and military/defense satellites.

Loading next visibility...
Identifier
55479, 2023-015AG
Orbit
LEO
Country
Flag of USUS
Related business
Manufacturer
SpaceX/Seattle
Mission
Operational Commercial Communications
Bus & Motor
STARLINK, Unknown motor
Mass
305 kg wet, ~290 kg dry
Launch date (UTC)
2023-02-02 (3 years ago)
Launch vehicle
FALCON 9
Launch site
Air Force Eastern Test Range (AFETR)
Object type
Payload
Rocket body
Debris
Shape & HBR
Box + 1 Pan, 10.1 m
Radar Cross Section
13.562 m², Large (>1 m²)

Expand to show TLE details & history
Last TLE update: 23 hours ago

TLE from 23 hours ago
0 STARLINK-5688
1 55479U 23015AG  26126.03452804  .00000299  00000-0  21269-4 0  9998
2 55479  43.0025 357.7046 0001169 254.1061 105.9661 15.25895979179571
Epoch: 2026-05-06T00:49Z
TLE epoch observation values (Epoch: 2026-05-06T00:49:43.222Z)
Latitude
-0.00004°
Longitude
121.37365°
Altitude
488.093 km
Speed
7.623 km/s
True Right ascension
23h 50m 49s
True Declination
0° 00' 00"
Sunlit
Object was in daylight at epoch
Visualization orbit readout
Latitude
Unknown
Longitude
Unknown
Altitude
Unknown
Speed
Unknown
Apparent Right ascension
Unknown
Apparent Declination
Unknown
Sunlit
N/A
Visualization observer readout
Local Sidereal Time
07:28:14
Azimuth
Unknown
Elevation
Unknown
Doppler factor
Unknown
Orbital elements
Apogee altitude
490.843 km
Perigee altitude
489.237 km
Semi-major axis
6,868.177 km
Eccentricity
0.00012
Inclination
43.0025°
RAAN
357.7046°
Arg. of periapsis
254.1061°
True anomaly
105.97898°
Mean anomaly
105.9661°
Eccentric anomaly
105.97254°
Mean motion
3.81312 °/min
Orbital period
94.41 mins
BSTAR
0.000021269
Loading maneuver chart data...
Computing Atmospheric mass density...
Loading historical data...
Loading historical data...
Loading historical data...
Loading historical data...
Loading historical data...
Loading historical data...
Loading historical data...

Documentation

Showing up to 5 results
|